This is the latest recevied weather packets stored in our database for station/object N1YZ. If no packets are shown the sender has not sent any weather packets the latest 10 day(s).
| Time | Temp. | Humidity | Pressure | Rain* | Wind** | Luminosity | Snow |
|---|---|---|---|---|---|---|---|
| 1777841344 | 21.67° C | 40% | 1038 hPa | 0 mm | - | 48 W/m² | - |
| 1777841042 | 21.67° C | 40% | 1037.8 hPa | 0 mm | - | 53 W/m² | - |
| 1777840739 | 21.67° C | 44% | 1038.2 hPa | 0 mm | - | 47 W/m² | - |
| 1777840436 | 22.22° C | 37% | 1038.1 hPa | 0 mm | - | 69 W/m² | - |
| 1777840133 | 22.78° C | 39% | 1038.3 hPa | 0 mm | - | 80 W/m² | - |
| 1777839831 | 22.22° C | 38% | 1038.5 hPa | 0 mm | - | 543 W/m² | - |
| 1777839529 | 21.67° C | 39% | 1038.5 hPa | 0 mm | - | 553 W/m² | - |
| 1777839226 | 21.67° C | 38% | 1038.5 hPa | 0 mm | - | 459 W/m² | - |
| 1777838924 | 21.67° C | 41% | 1038.6 hPa | 0 mm | - | 192 W/m² | - |
| 1777838619 | 21.67° C | 42% | 1038.8 hPa | 0 mm | - | 157 W/m² | - |
| 1777838317 | 22.22° C | 41% | 1038.8 hPa | 0 mm | - | 103 W/m² | - |
| 1777838013 | 22.22° C | 40% | 1038.8 hPa | 0 mm | - | 128 W/m² | - |
| 1777837711 | 22.22° C | 44% | 1039 hPa | 0 mm | - | 516 W/m² | - |
| 1777837406 | 22.22° C | 38% | 1039.1 hPa | 0 mm | - | 252 W/m² | - |
| 1777837103 | 22.22° C | 37% | 1039.2 hPa | 0 mm | - | 423 W/m² | - |
| 1777836799 | 22.22° C | 36% | 1039.3 hPa | 0 mm | - | 223 W/m² | - |
| 1777836495 | 22.22° C | 39% | 1039.4 hPa | 0 mm | - | 642 W/m² | - |
| 1777836190 | 22.22° C | 38% | 1039.2 hPa | 0 mm | - | 652 W/m² | - |
| 1777835887 | 21.67° C | 37% | 1039.6 hPa | 0 mm | - | 659 W/m² | - |
| 1777835584 | 22.22° C | 38% | 1039.5 hPa | 0 mm | - | 666 W/m² | - |
| 1777835281 | 22.22° C | 37% | 1039.7 hPa | 0 mm | - | 669 W/m² | - |
| 1777834978 | 21.67° C | 35% | 1039.9 hPa | 0 mm | - | 676 W/m² | - |
| 1777834674 | 22.22° C | 35% | 1039.9 hPa | 0 mm | - | 681 W/m² | - |
| 1777834370 | 22.22° C | 33% | 1039.9 hPa | 0 mm | - | 685 W/m² | - |
| 1777834065 | 22.22° C | 38% | 1040.1 hPa | 0 mm | - | 689 W/m² | - |
* Rain latest hour (hover to see other rain measurements)
** Current wind speed in m/s (hover to see current wind gust speed)